Weather History for Newark, NJ

Change the Weather History Date:

Friday, March 29, 2013

  Actual Average Record
Temperature  
Mean Temperature 47 °F 46 °F  
Max Temperature 57 °F 55 °F 89 °F (1945)
Min Temperature 37 °F 38 °F 23 °F (1959)
Degree Days  
Heating Degree Days 18 19  
Month to date heating degree days 726 673  
Since 1 July heating degree days 4106 4308  
Cooling Degree Days 0 0  
Month to date cooling degree days 0 0  
Year to date cooling degree days 0 0  
Moisture  
Dew Point 26 °F    
Average Humidity 47    
Maximum Humidity 64    
Minimum Humidity 29    
Precipitation  
Precipitation 0.00 in 0.14 in 2.29 in (2014)
Month to date precipitation 2.91 3.89  
Year to date precipitation 9.25 10.31  
Snow  
Snow 0.00 in 0.10 in 4.00 in (1970)
Month to date snowfall 8.8 4.5  
Since 1 July snowfall 29.5 27.5  
Snow Depth 0.00 in    
Sea Level Pressure  
Sea Level Pressure 30.12 in    
Wind  
Wind Speed 9 mph (WNW)    
Max Wind Speed 23 mph    
Max Gust Speed 26 mph    
Visibility 10 miles    
Events      
T = Trace of Precipitation, MM = Missing Value Source: NWS Daily Summary

Daily Weather History Graph

Daily Weather History Graph

Search for Another Location

Airport:

Trip Planner

Search our weather history database for the weather conditions in past years. The results will help you decide how hot, cold, wet, or windy it might be!

Date:

Astronomy

Mar. 29, 2013 Rise Set
Actual Time 6:44 AM EDT 7:18 PM EDT
Civil Twilight 6:17 AM EDT 7:46 PM EDT
Nautical Twilight 5:44 AM EDT 8:18 PM EDT
Astronomical Twilight 5:11 AM EDT 8:52 PM EDT
Moon 10:16 PM EDT (3/29) 7:50 AM EDT (3/29)
Length of Visible Light 13h 28m
Length of Day
12h 33m
Waning Gibbous, 93% of the Moon is Illuminated
Mar 29
Waning Gibbous
Apr 3
Last Quarter
Apr 10
New
Apr 18
First Quarter
Apr 25
Full

Hourly Weather History & Observations

Time (EDT) Temp. Windchill Dew Point Humidity Pressure Visibility Wind Dir Wind Speed Gust Speed Precip Events Conditions
12:51 AM 43.0 °F 39.5 °F 28.9 °F 58% 30.12 in 10.0 mi NW 5.8 mph - N/A   Mostly Cloudy
1:51 AM 42.1 °F 38.4 °F 28.0 °F 58% 30.13 in 10.0 mi WNW 5.8 mph - N/A   Mostly Cloudy
2:51 AM 41.0 °F 37.1 °F 28.9 °F 62% 30.12 in 10.0 mi West 5.8 mph - N/A   Mostly Cloudy
3:51 AM 41.0 °F 39.0 °F 28.9 °F 62% 30.13 in 10.0 mi West 3.5 mph - N/A   Mostly Cloudy
4:51 AM 39.9 °F 37.8 °F 28.0 °F 63% 30.13 in 10.0 mi WSW 3.5 mph - N/A   Partly Cloudy
5:51 AM 41.0 °F - 28.0 °F 60% 30.13 in 10.0 mi Calm Calm - N/A   Partly Cloudy
6:51 AM 39.9 °F 35.8 °F 28.0 °F 63% 30.14 in 10.0 mi WSW 5.8 mph - N/A   Partly Cloudy
7:51 AM 42.1 °F 40.2 °F 28.0 °F 58% 30.15 in 10.0 mi West 3.5 mph - N/A   Partly Cloudy
8:51 AM 46.0 °F 41.4 °F 28.0 °F 50% 30.15 in 10.0 mi NW 9.2 mph - N/A   Partly Cloudy
9:51 AM 48.0 °F - 27.0 °F 44% 30.15 in 10.0 mi NW 10.4 mph - N/A   Clear
10:51 AM 51.1 °F - 26.1 °F 38% 30.14 in 10.0 mi NW 5.8 mph - N/A   Scattered Clouds
11:51 AM 53.1 °F - 25.0 °F 34% 30.13 in 10.0 mi West 10.4 mph 18.4 mph N/A   Scattered Clouds
12:51 PM 54.0 °F - 24.1 °F 31% 30.10 in 10.0 mi WSW 10.4 mph 19.6 mph N/A   Mostly Cloudy
1:51 PM 55.9 °F - 24.1 °F 29% 30.08 in 10.0 mi West 9.2 mph 17.3 mph N/A   Mostly Cloudy
2:51 PM 54.0 °F - 23.0 °F 30% 30.06 in 10.0 mi West 12.7 mph 18.4 mph N/A   Mostly Cloudy
3:51 PM 54.0 °F - 23.0 °F 30% 30.06 in 10.0 mi NW 16.1 mph 25.3 mph N/A   Mostly Cloudy
4:51 PM 52.0 °F - 27.0 °F 38% 30.07 in 10.0 mi WNW 16.1 mph 23.0 mph N/A   Mostly Cloudy
5:51 PM 51.1 °F - 25.0 °F 36% 30.08 in 10.0 mi NW 13.8 mph 24.2 mph N/A   Mostly Cloudy
6:51 PM 50.0 °F - 25.0 °F 38% 30.09 in 10.0 mi NNW 18.4 mph 24.2 mph N/A   Mostly Cloudy
7:51 PM 48.9 °F - 25.0 °F 39% 30.10 in 10.0 mi NW 11.5 mph 18.4 mph N/A   Scattered Clouds
8:51 PM 48.2 °F - 26.6 °F 43% 30.12 in 10.0 mi NW 8.1 mph - N/A   Scattered Clouds
9:51 PM 46.9 °F - 26.1 °F 44% 30.13 in 10.0 mi NNW 9.2 mph - N/A   Partly Cloudy
10:51 PM 46.0 °F 41.9 °F 27.0 °F 47% 30.14 in 10.0 mi NW 8.1 mph - N/A   Partly Cloudy
11:51 PM 44.1 °F 40.8 °F 27.0 °F 51% 30.14 in 10.0 mi NW 5.8 mph - N/A   Partly Cloudy